Regional Weather Roundup
Issued by NWS

Home | Current Version | Previous Version | Text Only | Print | Product List | Glossary On
Versions: 1 2 3 4 5 6 7 8 9 10 11 12 13 14 15 16 17 18 19 20 21 22 23 24 25 26 27 28 29 30 31 32 33 34 35 36 37 38 39 40 41 42 43 44 45 46 47 48 49 50
000
ASCA42 TJSJ 311710
RWRPR
PUERTO RICO/U.S. VIRGIN ISLANDS HOURLY WEATHER ROUNDUP
NATIONAL WEATHER SERVICE SAN JUAN PR
100 PM AST FRI JUL 31 2015

PRZ001-004-311800-
PUERTO RICO

CITY           SKY/WX    TMP DP  RH WIND       PRES   REMARKS
SAN JUAN LMM   MOSUNNY   90  77  66 NE20G26   30.06S HX 102
PONCE          MOSUNNY   90  77  66 SE12G17   30.00S HX 102
MAYAGUEZ       PTSUNNY   88  75  66 W9        30.06S HX  97
AGUADILLA      MOSUNNY   88  75  66 E18       30.05F HX  97
$$

PRZ006-007-311800-
U.S. VIRGIN ISLANDS

CITY           SKY/WX    TMP DP  RH WIND       PRES   REMARKS
CHARLOTTE AMA  CLOUDY    88  75  66 SE14      30.05F HX  97
CHRISTIANSTED  PTSUNNY   91  73  55 E20G30    30.05F HX 100
$$

HOURLY WEATHER ROUNDUP FOR THE NEWS MEDIA

CITY           SKY/WX    TMP DP  RH WIND       PRES   REMARKS
ORLANDO        MOSUNNY   90  75  61 SW15      29.99F HX 100
NEW YORK       MOSUNNY   90  53  28 W10G21    29.86F
NEWARK         MOSUNNY   90  54  29 W8        29.85F
CHICAGO        MOSUNNY   85  53  33 NW17G23   29.98F
HARTFORD       MOSUNNY   86  57  37 W13       29.79F
BOSTON         MOSUNNY   87  56  34 W16G22    29.77F
DALLAS         MOSUNNY   91  68  46 VRB5      30.08S HX  95
PHILADELPHIA   MOSUNNY   88  54  31 N8        29.89F
LOS ANGELES    CLOUDY    70  66  87 W3        30.05S
WASHINGTON DC  MOSUNNY   85  58  39 NW10G17   29.94F


USA.gov is the U.S. government's official web portal to all federal, state and local government web resources and services.